This demonstration page uses our WeatherBlox Daily Observations layout. Learn more.

Left ArrowRight Arrow

47.50024, -111.30081

Hourly Observations for January 30, 2020

Temp ( °F °C ) Dew Point ( °F °C ) Humidity (%) Winds ( mph kmh ) Pressure ( in mb ) Visibility ( mi km ) Precip ( " mm )
12:53 am 00:53 Mostly Cloudy 40 4.4 23 -5 51 51 SW 22 35 29.89 1012 10 16 0.00 0.00
1:53 am 01:53 Partly Cloudy 38 3.3 24 -4.4 57 57 SW 17 28 29.92 1013 10 16 0.00 0.00
2:53 am 02:53 Mostly Cloudy 36 2.2 23 -5 59 59 WSW 15 24 29.96 1015 10 16 0.00 0.00
3:53 am 03:53 Clear 30 -1.1 20 -6.7 66 66 WSW 9 15 30.01 1016 10 16 0.00 0.00
4:53 am 04:53 Mostly Clear 32 0 19 -7.2 59 59 W 14 22 30.05 1018 10 16 0.00 0.00
5:53 am 05:53 Mostly Cloudy 32 0 20 -6.7 61 61 W 12 19 30.11 1020 10 16 0.00 0.00
6:53 am 06:53 Clear 30 -1.1 17 -8.3 58 58 W 12 19 30.15 1021 10 16 0.00 0.00
7:53 am 07:53 Clear 27 -2.8 15 -9.4 61 61 W 12 19 30.20 1023 10 16 0.00 0.00
8:53 am 08:53 Sunny 32 0 16 -8.9 52 52 W 12 19 30.23 1024 10 16 0.00 0.00
9:53 am 09:53 Sunny 39 3.9 16 -8.9 39 39 W 15 24 30.24 1024 10 16 0.00 0.00
10:53 am 10:53 Sunny 42 5.6 14 -10 32 32 W 20 31 30.25 1024 10 16 0.00 0.00
11:53 am 11:53 Sunny 45 7.2 12 -11.1 26 26 W 15 24 30.25 1025 10 16 0.00 0.00
12:53 pm 12:53 Sunny 46 7.8 8 -13.3 21 21 W 13 20 30.24 1024 10 16 0.00 0.00
1:53 pm 13:53 Sunny 45 7.2 5 -15 19 19 W 14 22 30.24 1024 10 16 0.00 0.00
2:53 pm 14:53 Sunny 46 7.8 8 -13.3 21 21 WSW 15 24 30.23 1024 10 16 0.00 0.00
3:53 pm 15:53 Sunny 44 6.7 10 -12.2 25 25 SW 12 19 30.25 1024 10 16 0.00 0.00
4:53 pm 16:53 Sunny 42 5.6 11 -11.7 28 28 SW 13 20 30.22 1024 10 16 0.00 0.00
5:53 pm 17:53 Clear 37 2.8 10 -12.2 33 33 SW 14 22 30.22 1023 10 16 0.00 0.00
6:53 pm 18:53 Clear 38 3.3 10 -12.2 31 31 SW 17 28 30.20 1023 10 16 0.00 0.00
7:53 pm 19:53 Clear 37 2.8 9 -12.8 31 31 SSW 17 28 30.20 1023 10 16 0.00 0.00
8:53 pm 20:53 Clear 37 2.8 6 -14.4 27 27 SW 20 31 30.17 1022 10 16 0.00 0.00
9:53 pm 21:53 Clear 36 2.2 3 -16.1 25 25 SSW 16 26 30.10 1019 10 16 0.00 0.00
10:53 pm 22:53 Clear 35 1.7 5 -15 28 28 SSW 20 31 30.04 1017 10 16 0.00 0.00
11:53 pm 23:53 Clear 39 3.9 5 -15 24 24 SSW 24 39 30.01 1016 10 16 0.00 0.00

Powered by AerisWeather